Flugplatz Mannheim-City

Bericht für EDFM

vom 17.09. um 13:50 UTC

Wind 8 kt aus 320°

Sichtweite 10 km oder mehr

gute Sicht, keine Wolken < 5000 ft, keine CB, keine Wettererscheinungen (CAVOK)

Temperatur 21.0°C

Taupunkt 8.0°C

Luftfeuchtigkeit 43%

Luftdruck 1019 hPa

EDFM 171350Z 32008KT 280V020 CAVOK 21/08 Q1019

Prognose für EDFM

vom 17.09. um 00:00 UTC

Zwischen 00:00 UTC und 00:00 UTC

Wind 7 kt aus 330°

Sichtweite 10 km oder mehr

aufgelockert bewölkt in 3000 ft

TAF EDFM 171100Z 1712/1721 33007KT 9999 SCT030
Impressum